Year,Month,Day,Hour,Minute,Value (Times are PST for temperature in C)
2014,07,08,00,00,16.20
2014,07,08,00,01,16.20
2014,07,08,00,02,16.20
2014,07,08,00,03,16.20
2014,07,08,00,04,16.20
2014,07,08,00,05,16.10
2014,07,08,00,06,16.10
2014,07,08,00,07,16.10
2014,07,08,00,08,16.10
2014,07,08,00,09,16.10
2014,07,08,00,10,16.10
2014,07,08,00,11,16.10
2014,07,08,00,12,16.10
2014,07,08,00,13,16.10
2014,07,08,00,14,16.10
2014,07,08,00,15,16.10
2014,07,08,00,16,16.10
2014,07,08,00,17,16.10
2014,07,08,00,18,16.10
2014,07,08,00,19,16.10
2014,07,08,00,20,16.10
2014,07,08,00,21,16.10
2014,07,08,00,22,16.10
2014,07,08,00,23,16.10
2014,07,08,00,24,16.10
2014,07,08,00,25,16.10
2014,07,08,00,26,16.10
2014,07,08,00,27,16.10
2014,07,08,00,28,16.10
2014,07,08,00,29,16.10
2014,07,08,00,30,16.10
2014,07,08,00,31,16.10
2014,07,08,00,32,16.10
2014,07,08,00,33,16.10
2014,07,08,00,34,16.10
2014,07,08,00,35,16.10
2014,07,08,00,36,16.10
2014,07,08,00,37,16.10
2014,07,08,00,38,16.10
2014,07,08,00,39,16.10
2014,07,08,00,40,16.10
2014,07,08,00,41,16.10
2014,07,08,00,42,16.10
2014,07,08,00,43,16.10
2014,07,08,00,44,16.10
2014,07,08,00,45,16.10
2014,07,08,00,46,16.10
2014,07,08,00,47,16.00
2014,07,08,00,48,16.00
2014,07,08,00,49,16.00
2014,07,08,00,50,16.00
2014,07,08,00,51,16.00
2014,07,08,00,52,16.00
2014,07,08,00,53,16.00
2014,07,08,00,54,16.00
2014,07,08,00,55,16.00
2014,07,08,00,56,16.00
2014,07,08,00,57,16.00
2014,07,08,00,58,16.00
2014,07,08,00,59,16.00
2014,07,08,01,00,16.00
2014,07,08,01,01,16.00
2014,07,08,01,02,16.00
2014,07,08,01,03,16.00
2014,07,08,01,04,16.00
2014,07,08,01,05,16.00
2014,07,08,01,06,16.00
2014,07,08,01,07,16.00
2014,07,08,01,08,16.00
2014,07,08,01,09,16.00
2014,07,08,01,10,16.00
2014,07,08,01,11,16.00
2014,07,08,01,12,15.90
2014,07,08,01,13,15.90
2014,07,08,01,14,15.90
2014,07,08,01,15,15.90
2014,07,08,01,16,15.90
2014,07,08,01,17,15.90
2014,07,08,01,18,15.90
2014,07,08,01,19,15.80
2014,07,08,01,20,15.80
2014,07,08,01,21,15.80
2014,07,08,01,22,15.80
2014,07,08,01,23,15.80
2014,07,08,01,24,15.80
2014,07,08,01,25,15.80
2014,07,08,01,26,15.80
2014,07,08,01,27,15.80
2014,07,08,01,28,15.80
2014,07,08,01,29,15.80
2014,07,08,01,30,15.80
2014,07,08,01,31,15.80
2014,07,08,01,32,15.80
2014,07,08,01,33,15.80
2014,07,08,01,34,15.80
2014,07,08,01,35,15.80
2014,07,08,01,36,15.80
2014,07,08,01,37,15.80
2014,07,08,01,38,15.80
2014,07,08,01,39,15.80
2014,07,08,01,40,15.80
2014,07,08,01,41,15.80
2014,07,08,01,42,15.80
2014,07,08,01,43,15.80
2014,07,08,01,44,15.80
2014,07,08,01,45,15.80
2014,07,08,01,46,15.80
2014,07,08,01,47,15.80
2014,07,08,01,48,15.80
2014,07,08,01,49,15.80
2014,07,08,01,50,15.80
2014,07,08,01,51,15.80
2014,07,08,01,52,15.80
2014,07,08,01,53,15.80
2014,07,08,01,54,15.80
2014,07,08,02,27,15.90
2014,07,08,02,28,15.90
2014,07,08,02,29,15.90
2014,07,08,02,30,15.90
2014,07,08,02,31,15.90
2014,07,08,02,32,15.90
2014,07,08,02,33,15.90
2014,07,08,02,34,15.90
2014,07,08,02,35,15.90
2014,07,08,02,36,15.90
2014,07,08,02,37,15.90
2014,07,08,02,38,15.90
2014,07,08,02,39,15.90
2014,07,08,02,40,15.90
2014,07,08,02,41,15.90
2014,07,08,02,42,15.90
2014,07,08,02,43,15.90
2014,07,08,02,44,15.90
2014,07,08,02,45,15.90
2014,07,08,02,46,15.90
2014,07,08,02,47,15.90
2014,07,08,02,48,15.90
2014,07,08,02,49,15.90
2014,07,08,02,50,15.90
2014,07,08,02,51,15.90
2014,07,08,02,52,15.90
2014,07,08,02,53,15.90
2014,07,08,02,54,15.90
2014,07,08,02,55,15.90
2014,07,08,02,56,15.90
2014,07,08,02,57,15.90
2014,07,08,02,58,15.90
2014,07,08,02,59,15.90
2014,07,08,03,00,15.90
2014,07,08,03,01,15.90
2014,07,08,03,02,15.90
2014,07,08,03,03,15.90
2014,07,08,03,04,15.90
2014,07,08,03,05,15.90
2014,07,08,03,06,15.90
2014,07,08,03,07,15.90
2014,07,08,03,08,15.80
2014,07,08,03,09,15.80
2014,07,08,03,10,15.80
2014,07,08,03,11,15.80
2014,07,08,03,12,15.80
2014,07,08,03,13,15.80
2014,07,08,03,14,15.80
2014,07,08,03,15,15.80
2014,07,08,03,16,15.80
2014,07,08,03,17,15.80
2014,07,08,03,18,15.80
2014,07,08,03,19,15.80
2014,07,08,03,20,15.80
2014,07,08,03,21,15.80
2014,07,08,03,22,15.80
2014,07,08,03,23,15.80
2014,07,08,03,24,15.80
2014,07,08,03,25,15.80
2014,07,08,03,26,15.80
2014,07,08,03,27,15.70
2014,07,08,03,28,15.70
2014,07,08,03,29,15.70
2014,07,08,03,30,15.70
2014,07,08,03,31,15.70
2014,07,08,03,32,15.70
2014,07,08,03,33,15.70
2014,07,08,03,34,15.70
2014,07,08,03,35,15.70
2014,07,08,03,36,15.70
2014,07,08,03,37,15.70
2014,07,08,03,38,15.70
2014,07,08,03,39,15.70
2014,07,08,03,40,15.70
2014,07,08,03,41,15.70
2014,07,08,03,42,15.70
2014,07,08,03,43,15.70
2014,07,08,03,44,15.70
2014,07,08,03,45,15.70
2014,07,08,03,46,15.70
2014,07,08,03,47,15.70
2014,07,08,03,48,15.60
2014,07,08,03,49,15.60
2014,07,08,03,50,15.60
2014,07,08,03,51,15.60
2014,07,08,03,52,15.60
2014,07,08,03,53,15.60
2014,07,08,03,54,15.60
2014,07,08,03,55,15.60
2014,07,08,03,56,15.60
2014,07,08,03,57,15.60
2014,07,08,03,58,15.60
2014,07,08,03,59,15.60
2014,07,08,04,00,15.60
2014,07,08,04,01,15.60
2014,07,08,04,02,15.60
2014,07,08,04,03,15.60
2014,07,08,04,04,15.50
2014,07,08,04,05,15.50
2014,07,08,04,06,15.50
2014,07,08,04,07,15.50
2014,07,08,04,08,15.50
2014,07,08,04,09,15.50
2014,07,08,04,10,15.50
2014,07,08,04,11,15.50
2014,07,08,04,12,15.50
2014,07,08,04,13,15.50
2014,07,08,04,14,15.50
2014,07,08,04,15,15.50
2014,07,08,04,16,15.50
2014,07,08,04,17,15.50
2014,07,08,04,18,15.50
2014,07,08,04,19,15.40
2014,07,08,04,20,15.40
2014,07,08,04,21,15.40
2014,07,08,04,22,15.40
2014,07,08,04,23,15.40
2014,07,08,04,24,15.40
2014,07,08,04,25,15.40
2014,07,08,04,26,15.40
2014,07,08,04,27,15.40
2014,07,08,04,28,15.40
2014,07,08,04,29,15.40
2014,07,08,04,30,15.40
2014,07,08,04,31,15.40
2014,07,08,04,32,15.40
2014,07,08,04,33,15.40
2014,07,08,04,34,15.40
2014,07,08,04,35,15.50
2014,07,08,04,36,15.50
2014,07,08,04,37,15.50
2014,07,08,04,38,15.50
2014,07,08,04,39,15.50
2014,07,08,04,40,15.50
2014,07,08,04,41,15.50
2014,07,08,04,42,15.50
2014,07,08,04,43,15.50
2014,07,08,04,44,15.60
2014,07,08,04,45,15.60
2014,07,08,04,46,15.60
2014,07,08,04,47,15.70
2014,07,08,04,48,15.70
2014,07,08,04,49,15.70
2014,07,08,04,50,15.60
2014,07,08,04,51,15.60
2014,07,08,04,52,15.60
2014,07,08,04,53,15.50
2014,07,08,04,54,15.50
2014,07,08,04,55,15.50
2014,07,08,04,56,15.40
2014,07,08,04,57,15.40
2014,07,08,04,58,15.30
2014,07,08,04,59,15.30
2014,07,08,05,00,15.20
2014,07,08,05,01,15.20
2014,07,08,05,02,15.10
2014,07,08,05,03,15.10
2014,07,08,05,04,15.10
2014,07,08,05,05,15.00
2014,07,08,05,06,15.00
2014,07,08,05,07,14.90
2014,07,08,05,08,14.80
2014,07,08,05,09,14.80
2014,07,08,05,10,14.80
2014,07,08,05,11,14.70
2014,07,08,05,12,14.70
2014,07,08,05,13,14.60
2014,07,08,05,14,14.60
2014,07,08,05,15,14.60
2014,07,08,05,16,14.50
2014,07,08,05,17,14.50
2014,07,08,05,18,14.50
2014,07,08,05,19,14.50
2014,07,08,05,20,14.40
2014,07,08,05,21,14.40
2014,07,08,05,22,14.40
2014,07,08,05,23,14.40
2014,07,08,05,24,14.40
2014,07,08,05,25,14.40
2014,07,08,05,26,14.40
2014,07,08,05,27,14.40
2014,07,08,05,28,14.40
2014,07,08,05,29,14.40
2014,07,08,05,30,14.50
2014,07,08,05,31,14.50
2014,07,08,05,32,14.50
2014,07,08,05,33,14.50
2014,07,08,05,34,14.50
2014,07,08,05,35,14.40
2014,07,08,05,36,14.40
2014,07,08,05,37,14.40
2014,07,08,05,38,14.40
2014,07,08,05,39,14.40
2014,07,08,05,40,14.40
2014,07,08,05,41,14.40
2014,07,08,05,42,14.40
2014,07,08,05,43,14.40
2014,07,08,05,44,14.40
2014,07,08,05,45,14.40
2014,07,08,05,46,14.40
2014,07,08,05,47,14.40
2014,07,08,05,48,14.40
2014,07,08,05,49,14.40
2014,07,08,05,50,14.50
2014,07,08,05,51,14.50
2014,07,08,05,52,14.50
2014,07,08,05,53,14.50
2014,07,08,05,54,14.60
2014,07,08,05,55,14.60
2014,07,08,05,56,14.60
2014,07,08,05,57,14.60
2014,07,08,05,58,14.70
2014,07,08,05,59,14.70
2014,07,08,06,00,14.70
2014,07,08,06,01,14.70
2014,07,08,06,02,14.70
2014,07,08,06,03,14.70
2014,07,08,06,04,14.80
2014,07,08,06,05,14.80
2014,07,08,06,06,14.80
2014,07,08,06,07,14.80
2014,07,08,06,08,14.90
2014,07,08,06,09,14.90
2014,07,08,06,10,15.00
2014,07,08,06,11,15.00
2014,07,08,06,12,15.10
2014,07,08,06,13,15.10
2014,07,08,06,14,15.10
2014,07,08,06,15,15.20
2014,07,08,06,16,15.20
2014,07,08,06,17,15.30
2014,07,08,06,18,15.30
2014,07,08,06,19,15.30
2014,07,08,06,20,15.40
2014,07,08,06,21,15.50
2014,07,08,06,22,15.50
2014,07,08,06,23,15.60
2014,07,08,06,24,15.60
2014,07,08,06,25,15.70
2014,07,08,06,26,15.70
2014,07,08,06,27,15.80
2014,07,08,06,28,15.80
2014,07,08,06,29,15.90
2014,07,08,06,30,15.90
2014,07,08,06,31,15.90
2014,07,08,06,32,16.00
2014,07,08,06,33,16.00
2014,07,08,06,34,16.10
2014,07,08,06,35,16.10
2014,07,08,06,36,16.20
2014,07,08,06,37,16.20
2014,07,08,06,38,16.30
2014,07,08,06,39,16.40
2014,07,08,06,40,16.40
2014,07,08,06,41,16.50
2014,07,08,06,42,16.50
2014,07,08,06,43,16.60
2014,07,08,06,44,16.60
2014,07,08,06,45,16.70
2014,07,08,06,46,16.70
2014,07,08,06,47,16.80
2014,07,08,06,48,16.80
2014,07,08,06,49,16.90
2014,07,08,06,50,17.00
2014,07,08,06,51,17.00
2014,07,08,06,52,17.10
2014,07,08,06,53,17.20
2014,07,08,06,54,17.20
2014,07,08,06,55,17.30
2014,07,08,06,56,17.30
2014,07,08,06,57,17.40
2014,07,08,06,58,17.50
2014,07,08,06,59,17.50
2014,07,08,07,00,17.60
2014,07,08,07,01,17.70
2014,07,08,07,02,17.70
2014,07,08,07,03,17.70
2014,07,08,07,04,17.70
2014,07,08,07,05,17.70
2014,07,08,07,06,17.70
2014,07,08,07,07,17.70
2014,07,08,07,08,17.70
2014,07,08,07,09,17.70
2014,07,08,07,10,17.70
2014,07,08,07,11,17.70
2014,07,08,07,12,17.70
2014,07,08,07,13,17.60
2014,07,08,07,14,17.60
2014,07,08,07,15,17.60
2014,07,08,07,16,17.60
2014,07,08,07,17,17.50
2014,07,08,07,18,17.50
2014,07,08,07,19,17.50
2014,07,08,07,20,17.50
2014,07,08,07,21,17.40
2014,07,08,07,22,17.40
2014,07,08,07,23,17.40
2014,07,08,07,24,17.40
2014,07,08,07,25,17.40
2014,07,08,07,26,17.50
2014,07,08,07,27,17.50
2014,07,08,07,28,17.50
2014,07,08,07,29,17.50
2014,07,08,07,30,17.50
2014,07,08,07,31,17.50
2014,07,08,07,32,17.50
2014,07,08,07,33,17.50
2014,07,08,07,34,17.50
2014,07,08,07,35,17.50
2014,07,08,07,36,17.50
2014,07,08,07,37,17.50
2014,07,08,07,38,17.50
2014,07,08,07,39,17.40
2014,07,08,07,40,17.40
2014,07,08,07,41,17.30
2014,07,08,07,42,17.30
2014,07,08,07,43,17.30
2014,07,08,07,44,17.20
2014,07,08,07,45,17.10
2014,07,08,07,46,17.10
2014,07,08,07,47,17.00
2014,07,08,07,48,16.90
2014,07,08,07,49,16.90
2014,07,08,07,50,16.90
2014,07,08,07,51,16.90
2014,07,08,07,52,16.90
2014,07,08,07,53,16.90
2014,07,08,07,54,16.90
2014,07,08,07,55,16.90
2014,07,08,07,56,16.90
2014,07,08,07,57,16.90
2014,07,08,07,58,17.00
2014,07,08,07,59,17.00
2014,07,08,08,00,17.00
2014,07,08,08,01,17.00
2014,07,08,08,02,17.00
2014,07,08,08,03,17.00
2014,07,08,08,04,16.90
2014,07,08,08,05,17.00
2014,07,08,08,06,17.00
2014,07,08,08,07,17.10
2014,07,08,08,08,17.10
2014,07,08,08,09,17.20
2014,07,08,08,10,17.20
2014,07,08,08,11,17.20
2014,07,08,08,12,17.20
2014,07,08,08,13,17.20
2014,07,08,08,14,17.20
2014,07,08,08,15,17.20
2014,07,08,08,16,17.20
2014,07,08,08,17,17.30
2014,07,08,08,18,17.30
2014,07,08,08,19,17.40
2014,07,08,08,20,17.50
2014,07,08,08,21,17.60
2014,07,08,08,22,17.70
2014,07,08,08,23,17.80
2014,07,08,08,24,17.90
2014,07,08,08,25,17.90
2014,07,08,08,26,18.00
2014,07,08,08,27,18.10
2014,07,08,08,28,18.20
2014,07,08,08,29,18.30
2014,07,08,08,30,18.40
2014,07,08,08,31,18.60
2014,07,08,08,32,18.70
2014,07,08,08,33,18.80
2014,07,08,08,34,18.90
2014,07,08,08,35,18.90
2014,07,08,08,36,19.00
2014,07,08,08,37,19.00
2014,07,08,08,38,19.10
2014,07,08,08,39,19.10
2014,07,08,08,40,19.20
2014,07,08,08,41,19.20
2014,07,08,08,42,19.20
2014,07,08,08,43,19.20
2014,07,08,08,44,19.10
2014,07,08,08,45,19.10
2014,07,08,08,46,19.10
2014,07,08,08,47,19.10
2014,07,08,08,48,19.20
2014,07,08,08,49,19.20
2014,07,08,08,50,19.30
2014,07,08,08,51,19.30
2014,07,08,08,52,19.40
2014,07,08,08,53,19.40
2014,07,08,08,54,19.40
2014,07,08,08,55,19.50
2014,07,08,08,56,19.50
2014,07,08,08,57,19.50
2014,07,08,08,58,19.50
2014,07,08,08,59,19.50
2014,07,08,09,00,19.50
2014,07,08,09,01,19.40
2014,07,08,09,02,19.40
2014,07,08,09,03,19.40
2014,07,08,09,04,19.40
2014,07,08,09,05,19.40
2014,07,08,09,06,19.40
2014,07,08,09,07,19.40
2014,07,08,09,08,19.40
2014,07,08,09,09,19.40
2014,07,08,09,10,19.40
2014,07,08,09,11,19.40
2014,07,08,09,12,19.40
2014,07,08,09,13,19.40
2014,07,08,09,14,19.40
2014,07,08,09,15,19.30
2014,07,08,09,16,19.30
2014,07,08,09,17,19.30
2014,07,08,09,18,19.30
2014,07,08,09,19,19.30
2014,07,08,09,20,19.30
2014,07,08,09,21,19.30
2014,07,08,09,22,19.30
2014,07,08,09,23,19.30
2014,07,08,09,24,19.30
2014,07,08,09,25,19.40
2014,07,08,09,26,19.40
2014,07,08,09,27,19.50
2014,07,08,09,28,19.50
2014,07,08,09,29,19.60
2014,07,08,09,30,19.60
2014,07,08,09,31,19.70
2014,07,08,09,32,19.70
2014,07,08,09,33,19.80
2014,07,08,09,34,19.80
2014,07,08,09,35,19.90
2014,07,08,09,36,20.00
2014,07,08,09,37,20.00
2014,07,08,09,38,20.10
2014,07,08,09,39,20.20
2014,07,08,09,40,20.20
2014,07,08,09,41,20.20
2014,07,08,09,42,20.20
2014,07,08,09,43,20.10
2014,07,08,09,44,20.10
2014,07,08,09,45,20.00
2014,07,08,09,46,20.00
2014,07,08,09,47,20.00
2014,07,08,09,48,19.90
2014,07,08,09,49,19.90
2014,07,08,09,50,20.00
2014,07,08,09,51,20.00
2014,07,08,09,52,20.10
2014,07,08,09,53,20.10
2014,07,08,09,54,20.20
2014,07,08,09,55,20.20
2014,07,08,09,56,20.20
2014,07,08,09,57,20.20
2014,07,08,09,58,20.20
2014,07,08,09,59,20.20
2014,07,08,10,00,20.20
2014,07,08,10,01,20.20
2014,07,08,10,02,20.20
2014,07,08,10,03,20.20
2014,07,08,10,04,20.10
2014,07,08,10,05,20.10
2014,07,08,10,06,20.10
2014,07,08,10,07,20.10
2014,07,08,10,08,20.10
2014,07,08,10,09,20.10
2014,07,08,10,10,20.10
2014,07,08,10,11,20.10
2014,07,08,10,12,20.10
2014,07,08,10,13,20.10
2014,07,08,10,14,20.10
2014,07,08,10,15,20.10
2014,07,08,10,16,20.20
2014,07,08,10,17,20.20
2014,07,08,10,18,20.20
2014,07,08,10,19,20.20
2014,07,08,10,20,20.10
2014,07,08,10,21,20.10
2014,07,08,10,22,20.10
2014,07,08,10,23,20.10
2014,07,08,10,24,20.00
2014,07,08,10,25,20.00
2014,07,08,10,26,19.90
2014,07,08,10,27,20.00
2014,07,08,10,28,20.00
2014,07,08,10,29,20.00
2014,07,08,10,30,19.90
2014,07,08,10,31,19.80
2014,07,08,10,32,19.60
2014,07,08,10,33,19.50
2014,07,08,10,34,19.30
2014,07,08,10,35,19.10
2014,07,08,10,36,18.90
2014,07,08,10,37,18.70
2014,07,08,10,38,18.50
2014,07,08,10,39,18.40
2014,07,08,10,40,18.30
2014,07,08,10,41,18.30
2014,07,08,10,42,18.30
2014,07,08,10,43,18.30
2014,07,08,10,44,18.30
2014,07,08,10,45,18.30
2014,07,08,10,46,18.30
2014,07,08,10,47,18.30
2014,07,08,10,48,18.30
2014,07,08,10,49,18.30
2014,07,08,10,50,18.30
2014,07,08,10,51,18.30
2014,07,08,10,52,18.30
2014,07,08,10,53,18.40
2014,07,08,10,54,18.40
2014,07,08,10,55,18.40
2014,07,08,10,56,18.40
2014,07,08,10,57,18.50
2014,07,08,10,58,18.50
2014,07,08,10,59,18.50
2014,07,08,11,00,18.50
2014,07,08,11,01,18.60
2014,07,08,11,02,18.60
2014,07,08,11,03,18.60
2014,07,08,11,04,18.70
2014,07,08,11,05,18.70
2014,07,08,11,06,18.70
2014,07,08,11,07,18.70
2014,07,08,11,08,18.80
2014,07,08,11,09,18.80
2014,07,08,11,10,18.80
2014,07,08,11,11,18.80
2014,07,08,11,12,18.80
2014,07,08,11,13,18.80
2014,07,08,11,14,18.80
2014,07,08,11,15,18.80
2014,07,08,11,16,18.80
2014,07,08,11,17,18.80
2014,07,08,11,18,18.90
2014,07,08,11,19,19.00
2014,07,08,11,20,19.10
2014,07,08,11,21,19.20
2014,07,08,11,22,19.20
2014,07,08,11,23,19.30
2014,07,08,11,24,19.30
2014,07,08,11,25,19.30
2014,07,08,11,26,19.30
2014,07,08,11,27,19.40
2014,07,08,11,28,19.50
2014,07,08,11,29,19.60
2014,07,08,11,30,19.60
2014,07,08,11,31,19.70
2014,07,08,11,32,19.70
2014,07,08,11,33,19.80
2014,07,08,11,34,19.80
2014,07,08,11,35,19.70
2014,07,08,11,36,19.80
2014,07,08,11,37,19.80
2014,07,08,11,38,19.80
2014,07,08,11,39,19.90
2014,07,08,11,40,19.90
2014,07,08,11,41,19.90
2014,07,08,11,42,19.90
2014,07,08,11,43,19.90
2014,07,08,11,44,19.90
2014,07,08,11,45,19.80
2014,07,08,11,46,19.70
2014,07,08,11,47,19.70
2014,07,08,11,48,19.70
2014,07,08,11,49,19.80
2014,07,08,11,50,19.80
2014,07,08,11,51,19.80
2014,07,08,11,52,19.80
2014,07,08,11,53,19.90
2014,07,08,11,54,19.80
2014,07,08,11,55,19.80
2014,07,08,11,56,19.80
2014,07,08,11,57,19.90
2014,07,08,11,58,19.90
2014,07,08,11,59,19.90
2014,07,08,12,00,19.90
2014,07,08,12,01,19.90
2014,07,08,12,02,19.90
2014,07,08,12,03,19.80
2014,07,08,12,04,19.80
2014,07,08,12,05,19.70
2014,07,08,12,06,19.70
2014,07,08,12,07,19.70
2014,07,08,12,08,19.80
2014,07,08,12,09,19.80
2014,07,08,12,10,19.80
2014,07,08,12,11,19.80
2014,07,08,12,12,19.70
2014,07,08,12,13,19.70
2014,07,08,12,14,19.70
2014,07,08,12,15,19.70
2014,07,08,12,16,19.70
2014,07,08,12,17,19.70
2014,07,08,12,18,19.70
2014,07,08,12,19,19.70
2014,07,08,12,20,19.70
2014,07,08,12,21,19.60
2014,07,08,12,22,19.50
2014,07,08,12,23,19.50
2014,07,08,12,24,19.40
2014,07,08,12,25,19.40
2014,07,08,12,26,19.50
2014,07,08,12,27,19.50
2014,07,08,12,28,19.50
2014,07,08,12,29,19.50
2014,07,08,12,30,19.40
2014,07,08,12,31,19.40
2014,07,08,12,32,19.30
2014,07,08,12,33,19.20
2014,07,08,12,34,19.20
2014,07,08,12,35,19.20
2014,07,08,12,36,19.20
2014,07,08,12,37,19.10
2014,07,08,12,38,19.10
2014,07,08,12,39,19.10
2014,07,08,12,40,19.10
2014,07,08,12,41,19.10
2014,07,08,12,42,19.10
2014,07,08,12,43,19.10
2014,07,08,12,44,19.10
2014,07,08,12,45,19.10
2014,07,08,12,46,19.00
2014,07,08,12,47,19.00
2014,07,08,12,48,19.00
2014,07,08,12,49,19.00
2014,07,08,12,50,19.10
2014,07,08,12,51,19.20
2014,07,08,12,52,19.20
2014,07,08,12,53,19.20
2014,07,08,12,54,19.20
2014,07,08,12,55,19.30
2014,07,08,12,56,19.30
2014,07,08,12,57,19.30
2014,07,08,12,58,19.20
2014,07,08,12,59,19.10
2014,07,08,13,00,19.10
2014,07,08,13,01,19.10
2014,07,08,13,02,19.10
2014,07,08,13,03,19.00
2014,07,08,13,04,19.00
2014,07,08,13,05,19.00
2014,07,08,13,06,19.10
2014,07,08,13,07,19.10
2014,07,08,13,08,19.10
2014,07,08,13,09,19.10
2014,07,08,13,10,19.10
2014,07,08,13,11,19.10
2014,07,08,13,12,19.10
2014,07,08,13,13,19.10
2014,07,08,13,14,19.10
2014,07,08,13,15,19.20
2014,07,08,13,16,19.20
2014,07,08,13,17,19.30
2014,07,08,13,18,19.40
2014,07,08,13,19,19.40
2014,07,08,13,20,19.40
2014,07,08,13,21,19.40
2014,07,08,13,22,19.40
2014,07,08,13,23,19.40
2014,07,08,13,24,19.40
2014,07,08,13,25,19.50
2014,07,08,13,26,19.60
2014,07,08,13,27,19.60
2014,07,08,13,28,19.60
2014,07,08,13,29,19.70
2014,07,08,13,30,19.70
2014,07,08,13,31,19.80
2014,07,08,13,32,19.90
2014,07,08,13,33,19.90
2014,07,08,13,34,19.90
2014,07,08,13,35,19.90
2014,07,08,13,36,19.90
2014,07,08,13,37,20.00
2014,07,08,13,38,20.00
2014,07,08,13,39,20.10
2014,07,08,13,40,20.10
2014,07,08,13,41,20.20
2014,07,08,13,42,20.20
2014,07,08,13,43,20.30
2014,07,08,13,44,20.40
2014,07,08,13,45,20.40
2014,07,08,13,46,20.50
2014,07,08,13,47,20.60
2014,07,08,13,48,20.60
2014,07,08,13,49,20.70
2014,07,08,13,50,20.70
2014,07,08,13,51,20.60
2014,07,08,13,52,20.70
2014,07,08,13,53,20.70
2014,07,08,13,54,20.70
2014,07,08,13,55,20.70
2014,07,08,13,56,20.80
2014,07,08,13,57,20.80
2014,07,08,13,58,20.80
2014,07,08,13,59,20.80
2014,07,08,14,00,20.80
2014,07,08,14,01,20.80
2014,07,08,14,02,20.80
2014,07,08,14,03,20.80
2014,07,08,14,04,20.80
2014,07,08,14,05,20.80
2014,07,08,14,06,20.80
2014,07,08,14,07,20.80
2014,07,08,14,08,20.80
2014,07,08,14,09,20.80
2014,07,08,14,10,20.70
2014,07,08,14,11,20.70
2014,07,08,14,12,20.80
2014,07,08,14,13,20.80
2014,07,08,14,14,20.70
2014,07,08,14,15,20.70
2014,07,08,14,16,20.60
2014,07,08,14,17,20.60
2014,07,08,14,18,20.60
2014,07,08,14,19,20.50
2014,07,08,14,20,20.40
2014,07,08,14,21,20.40
2014,07,08,14,22,20.30
2014,07,08,14,23,20.20
2014,07,08,14,24,20.20
2014,07,08,14,25,20.20
2014,07,08,14,26,20.00
2014,07,08,14,27,19.90
2014,07,08,14,28,19.90
2014,07,08,14,29,19.80
2014,07,08,14,30,19.80
2014,07,08,14,31,19.80
2014,07,08,14,32,19.80
2014,07,08,14,33,19.80
2014,07,08,14,34,19.80
2014,07,08,14,35,19.70
2014,07,08,14,36,19.70
2014,07,08,14,37,19.60
2014,07,08,14,38,19.60
2014,07,08,14,39,19.60
2014,07,08,14,40,19.60
2014,07,08,14,41,19.60
2014,07,08,14,42,19.70
2014,07,08,14,43,19.70
2014,07,08,14,44,19.70
2014,07,08,14,45,19.60
2014,07,08,14,46,19.50
2014,07,08,14,47,19.40
2014,07,08,14,48,19.30
2014,07,08,14,49,19.30
2014,07,08,14,50,19.20
2014,07,08,14,51,19.20
2014,07,08,14,52,19.20
2014,07,08,14,53,19.10
2014,07,08,14,54,19.10
2014,07,08,14,55,19.00
2014,07,08,14,56,19.00
2014,07,08,14,57,18.90
2014,07,08,14,58,18.80
2014,07,08,14,59,18.80
2014,07,08,15,00,18.70
2014,07,08,15,01,18.70
2014,07,08,15,02,18.80
2014,07,08,15,03,18.80
2014,07,08,15,04,18.80
2014,07,08,15,05,18.90
2014,07,08,15,06,18.90
2014,07,08,15,07,18.90
2014,07,08,15,08,18.80
2014,07,08,15,09,18.80
2014,07,08,15,10,18.80
2014,07,08,15,11,18.90
2014,07,08,15,12,19.10
2014,07,08,15,13,19.10
2014,07,08,15,14,19.10
2014,07,08,15,15,19.10
2014,07,08,15,16,19.10
2014,07,08,15,17,19.10
2014,07,08,15,18,19.20
2014,07,08,15,19,19.20
2014,07,08,15,20,19.30
2014,07,08,15,21,19.30
2014,07,08,15,22,19.30
2014,07,08,15,23,19.20
2014,07,08,15,24,19.20
2014,07,08,15,25,19.20
2014,07,08,15,26,19.30
2014,07,08,15,27,19.30
2014,07,08,15,28,19.30
2014,07,08,15,29,19.30
2014,07,08,15,30,19.30
2014,07,08,15,31,19.30
2014,07,08,15,32,19.40
2014,07,08,15,33,19.40
2014,07,08,15,34,19.50
2014,07,08,15,35,19.60
2014,07,08,15,36,19.70
2014,07,08,15,37,19.70
2014,07,08,15,38,19.70
2014,07,08,15,39,19.60
2014,07,08,15,40,19.50
2014,07,08,15,41,19.30
2014,07,08,15,42,19.20
2014,07,08,15,43,19.10
2014,07,08,15,44,18.90
2014,07,08,15,45,18.80
2014,07,08,15,46,18.70
2014,07,08,15,47,18.60
2014,07,08,15,48,18.60
2014,07,08,15,49,18.60
2014,07,08,15,50,18.50
2014,07,08,15,51,18.40
2014,07,08,15,52,18.30
2014,07,08,15,53,18.10
2014,07,08,15,54,17.90
2014,07,08,15,55,17.70
2014,07,08,15,56,17.60
2014,07,08,15,57,17.40
2014,07,08,15,58,17.30
2014,07,08,15,59,17.30
2014,07,08,16,00,17.30
2014,07,08,16,01,17.40
2014,07,08,16,02,17.40
2014,07,08,16,03,17.50
2014,07,08,16,04,17.60
2014,07,08,16,05,17.60
2014,07,08,16,06,17.70
2014,07,08,16,07,17.70
2014,07,08,16,08,17.70
2014,07,08,16,09,17.60
2014,07,08,16,10,17.70
2014,07,08,16,11,17.70
2014,07,08,16,12,17.70
2014,07,08,16,13,17.80
2014,07,08,16,14,17.80
2014,07,08,16,15,17.90
2014,07,08,16,16,18.00
2014,07,08,16,17,18.00
2014,07,08,16,18,18.10
2014,07,08,16,19,18.20
2014,07,08,16,20,18.20
2014,07,08,16,21,18.30
2014,07,08,16,22,18.30
2014,07,08,16,23,18.40
2014,07,08,16,24,18.50
2014,07,08,16,25,18.60
2014,07,08,16,26,18.70
2014,07,08,16,27,18.70
2014,07,08,16,28,18.70
2014,07,08,16,29,18.70
2014,07,08,16,30,18.70
2014,07,08,16,31,18.60
2014,07,08,16,32,18.70
2014,07,08,16,33,18.70
2014,07,08,16,34,18.70
2014,07,08,16,35,18.70
2014,07,08,16,36,18.70
2014,07,08,16,37,18.70
2014,07,08,16,38,18.60
2014,07,08,16,39,18.50
2014,07,08,16,40,18.50
2014,07,08,16,41,18.50
2014,07,08,16,42,18.40
2014,07,08,16,43,18.40
2014,07,08,16,44,18.40
2014,07,08,16,45,18.50
2014,07,08,16,46,18.50
2014,07,08,16,47,18.50
2014,07,08,16,48,18.60
2014,07,08,16,49,18.70
2014,07,08,16,50,18.70
2014,07,08,16,51,18.70
2014,07,08,16,52,18.70
2014,07,08,16,53,18.80
2014,07,08,16,54,18.70
2014,07,08,16,55,18.60
2014,07,08,16,56,18.60
2014,07,08,16,57,18.50
2014,07,08,16,58,18.30
2014,07,08,16,59,18.30
2014,07,08,17,00,18.30
2014,07,08,17,01,18.30
2014,07,08,17,02,18.30
2014,07,08,17,03,18.40
2014,07,08,17,04,18.50
2014,07,08,17,05,18.60
2014,07,08,17,06,18.70
2014,07,08,17,07,18.80
2014,07,08,17,08,18.90
2014,07,08,17,09,19.00
2014,07,08,17,10,19.10
2014,07,08,17,11,19.20
2014,07,08,17,12,19.30
2014,07,08,17,13,19.30
2014,07,08,17,14,19.40
2014,07,08,17,15,19.40
2014,07,08,17,16,19.40
2014,07,08,17,17,19.30
2014,07,08,17,18,19.30
2014,07,08,17,19,19.30
2014,07,08,17,20,19.30
2014,07,08,17,21,19.40
2014,07,08,17,22,19.50
2014,07,08,17,23,19.60
2014,07,08,17,24,19.60
2014,07,08,17,25,19.60
2014,07,08,17,26,19.70
2014,07,08,17,27,19.70
2014,07,08,17,28,19.80
2014,07,08,17,29,19.80
2014,07,08,17,30,19.80
2014,07,08,17,31,19.80
2014,07,08,17,32,19.90
2014,07,08,17,33,19.90
2014,07,08,17,34,20.00
2014,07,08,17,35,20.10
2014,07,08,17,36,20.20
2014,07,08,17,37,20.30
2014,07,08,17,38,20.40
2014,07,08,17,39,20.40
2014,07,08,17,40,20.40
2014,07,08,17,41,20.40
2014,07,08,17,42,20.40
2014,07,08,17,43,20.50
2014,07,08,17,44,20.50
2014,07,08,17,45,20.60
2014,07,08,17,46,20.60
2014,07,08,17,47,20.70
2014,07,08,17,48,20.70
2014,07,08,17,49,20.70
2014,07,08,17,50,20.80
2014,07,08,17,51,20.80